FREGAT DEB, 45638

Orbit data source: Space-Track

FREGAT DEB, 45638 is space debris in LEO originally from a launch on Mon, 18 Jul 2011 UTC launched from the Tyuratam Missile And Space Complex (TTMTR). Debris objects in space refer to the collection of defunct objects orbiting the Earth. Examples of debris include non-operational satellites, rocket bodies, and fragments generated from explosions, collisions, or faulty payload assembly.

Loading next visibility...
Identifier
45638, 2011-037AE
Orbit
LEO
Last TLE update
1 day ago
Origin
Manufacturer
Lavochkin
Mission
Spacecraft
Bus & Motor
Unknown
Mass
Unknown
Launch date (UTC)
2011-07-18 (14 years ago)
Launch vehicle
Unknown
Launch site
Tyuratam Missile And Space Complex (TTMTR)
Object type
Payload
Rocket body
Debris
Shape & HBR
Unknown
Radar Cross Section
Small (<0.1 m²)

Expand to show TLE details & history

TLE from 1 day ago
0 FREGAT DEB
1 45638U 11037AE  25128.15295057  .00025121  00000-0  18808-2 0  9998
2 45638  51.4120  59.4584 1318528 229.2107 118.6866 12.69793826212988
Epoch: 2025-05-08T03:40Z
Definitive object data (Epoch: 2025-05-08T03:40:14.929Z)
Latitude
0.00002°
Longitude
138.16867°
Altitude
1,968.565 km
Speed
6.647 km/s
True Right ascension
03h 57m 50s
True Declination
0° 00' 00"
Sunlit
Object was in daylight at TLE epoch
Visualization TLE readout
Latitude
41.04402°
Longitude
178.31639°
Altitude
2,404.103 km
Speed
6.285 km/s
Apparent Right ascension
04h 58m 06s
Apparent Declination
9° 29' 10"
Sunlit
Object is in daylight
Visualization observer readout
Local Sidereal Time
14:38:04
Azimuth
318.729° NNW
Elevation
-30.921°
Doppler factor
1
Orbital elements
Apogee altitude
2,406.635 km
Perigee altitude
359.908 km
Semi-major axis
7,761.408 km
Eccentricity
0.1318528
Inclination
51.412°
RAAN
59.4584°
Arg. of periapsis
229.2107°
True anomaly
130.8755°
Mean anomaly
118.6866°
Eccentric anomaly
124.88375°
Mean motion
3.17419 °/min
BSTAR
0.0018808
Orbital period
113.41 mins
Loading maneuver chart data...
Loading SW <> Apogee altitude chart data...
Loading historical data...
Loading historical data...
Loading historical data...
Loading historical data...
Loading historical data...
Loading historical data...
Loading historical data...

FREGAT DEB Visibility forecast

Observer location: undefined°, undefined°

Span
Click to sort rows by Start time (UTC) header in descending order
Start Az.
Max El. time (UTC)
Max El. Az.
Max El.
End time (UTC)
End Az.
10 mins2025-05-09 06:53:13.660Z287.651° WNW2025-05-09 06:59:13.660Z247.927° W19.342°2025-05-09 07:03:13.660Z209.719° SW
18 mins2025-05-09 19:26:13.660Z159.118° S2025-05-09 19:34:13.660Z115.974° SE24.592°2025-05-09 19:44:13.660Z69.368° E
25 mins2025-05-09 21:21:13.660Z215.017° SW2025-05-09 21:33:13.660Z123.276° SE43.748°2025-05-09 21:46:13.660Z55.144° ENE
25 mins2025-05-09 23:21:13.660Z258.356° W2025-05-09 23:34:13.660Z340.794° N41.622°2025-05-09 23:46:13.660Z56.228° ENE
22 mins2025-05-10 01:24:13.660Z290.319° WNW2025-05-10 01:36:13.660Z356.701° N37.063°2025-05-10 01:46:13.660Z71.496° E
19 mins2025-05-10 03:27:13.660Z306.025° NW2025-05-10 03:38:13.660Z20.259° NNE42.416°2025-05-10 03:46:13.660Z106.61° ESE
16 mins2025-05-10 05:28:13.660Z300.923° NW2025-05-10 05:37:13.660Z241.184° WSW37.307°2025-05-10 05:44:13.660Z160.958° S
|